[[[{"header":{"parameterUnit":"kt","parameterCategory":2,"dx":1,"dy":1,"la1":30.253999710083008,"la2":30.299108505249023,"lo1":-89.0895004272461,"lo2":-89.04439544677734,"nx":28,"ny":28,"refTime":"2022-10-15T21:00:00:Z","depth":0,"parameterNumber":1,"parameterNumberName":"U-component_of_WINDS"},"data":[-3.9675,-3.9805,-3.9783,-3.9921,-3.9924,-4.0015,-4.004,-4.007,-4.0088,-4.0194,-4.025,-4.024,-4.0249,-4.0311,-4.0372,-4.0366,-4.0394,-4.0457,-4.044,-4.0177,-4.0139,-4.0103,-4.0072,-4.0463,-4.0463,-4.0716,-4.0719,-4.072,-3.9486,-3.9491,-3.9557,-3.9606,-3.9662,-3.9588,-3.962,-3.9673,-3.9756,-3.9779,-3.9832,-3.9923,-3.9992,-3.9979,-4.0041,-4.0102,-4.0071,-4.012,-4.0117,-4.012,-3.9838,-3.9804,-4.0145,-4.0144,-4.0144,-4.0144,-4.0144,-4.0144,-3.9137,-3.9216,-3.9232,-3.9303,-3.9321,-3.9354,-3.9425,-3.941,-3.9474,-3.9536,-3.9495,-3.9588,-3.9606,-3.9669,-3.9684,-3.9756,-3.9697,-3.9744,-3.9757,-3.977,-3.979,-3.9432,-3.9765,-3.9764,-3.9763,-3.9762,-3.9761,0,-3.8875,-3.8851,-3.8912,-3.8967,-3.9017,-3.9057,-3.909,-3.9133,-3.9071,-3.9127,-3.9205,-3.9247,-3.9328,-3.9399,-3.9451,-3.9457,-3.9387,-3.9375,-3.9408,-3.9432,-3.9447,-3.9443,-3.8987,-3.9367,-3.9363,-3.936,-3.9359,-3.9357,-3.8524,-3.8617,-3.8621,-3.8668,-3.8679,-3.8754,-3.8794,-3.8733,-3.8778,-3.8809,-3.8881,-3.8951,-3.9004,-3.9133,-3.9115,-3.9176,-3.9143,-3.9291,-3.9151,-3.917,-3.9148,-3.9145,-3.9155,-3.932,-3.9325,-3.9329,-3.9332,0,-3.8329,-3.8289,-3.8426,-3.842,-3.8421,-3.8523,-3.8518,-3.8593,-3.8569,-3.8671,-3.869,-3.8655,-3.8732,-3.8689,-3.8769,-3.8744,-3.8913,-3.8877,-3.8907,-3.8899,-3.9029,-3.9019,-3.9454,-3.9508,-3.9099,-3.9103,-3.9106,0,-3.8015,-3.814,-3.8073,-3.8155,-3.8291,-3.8225,-3.8362,-3.8356,-3.8369,-3.8447,-3.8358,-3.8434,-3.8366,-3.8436,-3.84,-3.8529,-3.8543,-3.8533,-3.8523,-3.8543,-3.8545,-3.8569,-3.8551,-3.8491,-3.8489,-3.8487,-3.8485,0,-3.7716,-3.7825,-3.7956,-3.7975,-3.7981,-3.8044,-3.805,-3.8063,-3.8103,-3.8147,-3.8172,-3.8228,-3.826,-3.8305,-3.8258,-3.8165,-3.8414,-3.8277,-3.8404,-3.8406,-3.8464,-3.8461,-3.8854,-3.8483,-3.8482,-3.8481,-3.8481,0,-3.7457,-3.7502,-3.7698,-3.77,-3.7732,-3.7818,-3.7869,-3.7932,-3.7953,-3.7935,-3.7969,-3.7905,-3.8012,-3.788,-3.8027,-3.7921,-3.7957,-3.7956,-3.7964,-3.7974,-3.7828,-3.8059,-3.8435,-3.8475,-3.798,-3.7975,-3.7972,0,-3.7128,-3.7313,-3.7258,-3.7445,-3.7525,-3.7419,-3.7514,-3.7534,-3.7518,-3.7584,-3.7565,-3.7641,-3.7532,-3.755,-3.7628,-3.7613,-3.7752,-3.7593,-3.7692,-3.7696,-3.7693,-3.8037,-3.8106,-3.8357,-3.7918,-3.7923,-3.7927,0,-3.6867,-3.6871,-3.6909,-3.6927,-3.6943,-3.7008,-3.7117,-3.7176,-3.7223,-3.7254,-3.7345,-3.7448,-3.7372,-3.7401,-3.7355,-3.7439,-3.7656,-3.7345,-3.7345,-3.7406,-3.7885,-3.795,-3.7993,-3.7606,-3.7613,-3.7618,-3.7884,0,-3.649,-3.6576,-3.6674,-3.6717,-3.676,-3.6874,-3.6826,-3.6878,-3.6828,-3.6808,-3.6939,-3.6943,-3.7005,-3.7039,-3.6992,-3.7197,-3.7156,-3.7074,-3.6944,-3.7169,-3.7256,-3.7291,-3.6818,-3.6814,-3.6811,-3.6808,0,0,-3.6187,-3.6309,-3.6243,-3.6345,-3.6378,-3.6266,-3.6392,-3.6411,-3.6452,-3.6478,-3.6404,-3.6552,-3.6559,-3.6723,-3.6789,-3.6813,-3.6846,-3.6769,-3.7062,-3.709,-3.7116,-3.721,-3.7247,-3.6802,-3.68,-3.6799,-3.6798,0,-3.6039,-3.6047,-3.6171,-3.6187,-3.6208,-3.618,-3.621,-3.6212,-3.6205,-3.6331,-3.6238,-3.631,-3.6429,-3.645,-3.6476,-3.6747,-3.6674,-3.6769,-3.6932,-3.7028,-3.7061,-3.709,-3.7189,-3.7226,-3.679,-3.679,-3.6791,0,-3.5776,-3.5777,-3.5831,-3.5898,-3.5911,-3.5995,-3.5846,-3.5941,-3.6003,-3.5876,-3.6004,-3.6,-3.6023,-3.6183,-3.6252,-3.6188,-3.6521,-3.6406,-3.6427,-3.6434,-3.6525,-3.6565,-3.6601,-3.6134,-3.6132,-3.613,0,0,-3.5656,-3.5734,-3.5715,-3.5863,-3.5877,-3.5837,-3.5876,-3.5831,-3.5852,-3.5862,-3.5856,-3.5881,-3.5949,-3.5996,-3.6057,-3.6239,-3.624,-3.6327,-3.6358,-3.6384,-3.6405,-3.6503,-3.6543,-3.6122,-3.6122,-3.6122,0,0,-3.5598,-3.5581,-3.5527,-3.5691,-3.5715,-3.5707,-3.5799,-3.5732,-3.5783,-3.5764,-3.5692,-3.5696,-3.5844,-3.5844,-3.5744,-3.6011,-3.5883,-3.5905,-3.6006,-3.6044,-3.6074,-3.6072,-3.5594,0,0,0,0,0,-3.5423,-3.5583,-3.5534,-3.5554,-3.5638,-3.5734,-3.5744,-3.5688,-3.5599,-3.5673,-3.5657,-3.5575,-3.5775,-3.5685,-3.5707,-3.582,-3.6021,-3.6039,-3.6056,-3.6227,-3.6268,-3.6302,0,0,0,0,0,0,-3.543,-3.5455,-3.5529,-3.5528,-3.5547,-3.5727,-3.5564,-3.5553,-3.5589,-3.5572,-3.5581,-3.5576,-3.553,-3.567,-3.5691,-3.5799,-3.5586,-3.6028,-3.6043,-3.6057,-3.6241,-3.6274,-3.6303,0,0,0,0,0,-3.5436,-3.5456,-3.5605,-3.5526,-3.5542,-3.5505,-3.5558,-3.5547,-3.5574,-3.555,-3.5541,-3.5528,-3.5534,-3.5548,-3.5682,-3.5791,-3.5572,-3.558,-3.6038,-3.605,-3.606,-3.6257,0,0,0,0,0,0,-3.544,-3.5447,-3.5607,-3.561,-3.546,-3.5494,-3.5497,-3.5542,-3.5548,-3.5542,-3.5493,-3.5479,-3.554,-3.5549,-3.556,-3.5792,-3.556,-3.5568,-3.5573,-3.6047,-3.6056,-3.6065,0,0,0,0,0,0,-3.5436,-3.545,-3.5609,-3.553,-3.5523,-3.5484,-3.5487,-3.5592,-3.555,-3.5491,-3.5479,-3.5487,-3.5524,-3.5551,-3.5559,-3.5726,-3.5551,-3.5558,-3.5564,-3.5567,-3.6054,-3.6062,0,0,0,0,0,0,-3.5441,-3.5453,-3.5528,-3.5523,-3.5517,-3.5544,-3.5576,-3.5665,-3.5481,-3.5492,-3.5463,-3.5455,-3.5528,-3.5535,-3.5559,-3.5723,-3.5725,-3.5551,-3.5556,-3.556,-3.5562,0,0,0,0,0,0,0,-3.5445,-3.5375,-3.5591,-3.5518,-3.5512,-3.5636,-3.5637,-3.5637,-3.548,-3.5472,-3.5465,-3.5459,-3.5507,-3.5516,-3.5524,-3.5721,0,0,-3.555,-3.5554,0,0,0,0,0,0,0,0,-3.5369,-3.5374,-3.5591,-3.5592,-3.5592,-3.5636,-3.5637,-3.5637,-3.5478,-3.5473,-3.5467,-3.5461,-3.551,-3.5516,-3.5523,0,0,0,0,0,0,0,0,0,0,0,0,0,0,0,-3.5591,-3.5592,0,-3.5636,-3.5637,-3.5637,-3.5478,-3.5473,-3.5468,-3.5463,-3.5511,-3.5517,-3.5523,0,0,0,0,0,0,0,0,0,0,0,0,0,0,0,0,0,0,0,0,0,0,0,0,0,0,0,0,0,0,0,0,0,0,0,0,0,0,0,0,0,0,0,0,0,0,0,0,0,0,0,0,0,0,0,0,0,0,0,0,0,0,0,0,0,0,0,0,0]}],[{"header":{"parameterUnit":"kt","parameterCategory":2,"dx":1,"dy":1,"la1":30.253999710083008,"la2":30.299108505249023,"lo1":-89.0895004272461,"lo2":-89.04439544677734,"nx":28,"ny":28,"refTime":"2022-10-15T21:00:00:Z","depth":0,"parameterNumber":2,"parameterNumberName":"V-component_of_WINDS"},"data":[-3.7631,-3.7695,-3.7685,-3.7753,-3.7755,-3.78,-3.7812,-3.7827,-3.7836,-3.7887,-3.7914,-3.791,-3.7914,-3.7943,-3.7972,-3.7969,-3.7982,-3.8011,-3.8003,-3.7881,-3.7863,-3.7846,-3.7831,-3.8014,-3.8014,-3.8131,-3.8132,-3.8133,-3.7541,-3.7545,-3.7578,-3.7603,-3.7631,-3.7597,-3.7614,-3.7639,-3.7679,-3.7691,-3.7717,-3.7761,-3.7794,-3.7788,-3.7818,-3.7846,-3.7831,-3.7855,-3.7853,-3.7854,-3.7723,-3.7707,-3.7866,-3.7866,-3.7866,-3.7866,-3.7866,-3.7866,-3.7374,-3.7413,-3.7423,-3.7459,-3.7469,-3.7485,-3.752,-3.7515,-3.7546,-3.7577,-3.7558,-3.7603,-3.7613,-3.7643,-3.7651,-3.7685,-3.7657,-3.7679,-3.7685,-3.7691,-3.77,-3.7532,-3.7689,-3.7689,-3.7688,-3.7688,-3.7688,0,-3.7249,-3.7238,-3.727,-3.7298,-3.7324,-3.7345,-3.7362,-3.7383,-3.7356,-3.7383,-3.7422,-3.7442,-3.7482,-3.7517,-3.7542,-3.7545,-3.7512,-3.7507,-3.7522,-3.7533,-3.7538,-3.7536,-3.7323,-3.7503,-3.7501,-3.75,-3.7499,-3.7499,-3.708,-3.7127,-3.7132,-3.7156,-3.7163,-3.7201,-3.7221,-3.7194,-3.7217,-3.7233,-3.7269,-3.7303,-3.7329,-3.7392,-3.7384,-3.7414,-3.7398,-3.7468,-3.7402,-3.741,-3.7399,-3.7397,-3.7401,-3.7481,-3.7483,-3.7485,-3.7487,0,-3.6986,-3.697,-3.7039,-3.704,-3.7041,-3.7091,-3.7091,-3.7128,-3.7118,-3.7168,-3.7178,-3.7163,-3.7201,-3.7182,-3.7221,-3.721,-3.729,-3.7274,-3.7287,-3.7283,-3.7343,-3.7338,-3.7543,-3.7569,-3.7378,-3.738,-3.7382,0,-3.6836,-3.6898,-3.687,-3.6911,-3.6979,-3.695,-3.7017,-3.7016,-3.7024,-3.7063,-3.7022,-3.7059,-3.7029,-3.7063,-3.7047,-3.7109,-3.7116,-3.7111,-3.7106,-3.7116,-3.7116,-3.7128,-3.7119,-3.7093,-3.7092,-3.7091,-3.709,0,-3.669,-3.6748,-3.6815,-3.6825,-3.6833,-3.6864,-3.6869,-3.6877,-3.6898,-3.6921,-3.6934,-3.6962,-3.6978,-3.7001,-3.698,-3.6936,-3.7055,-3.6991,-3.705,-3.7051,-3.7078,-3.7077,-3.7263,-3.7089,-3.7089,-3.7088,-3.7088,0,-3.6567,-3.6592,-3.6691,-3.6695,-3.6712,-3.6755,-3.6782,-3.6815,-3.6827,-3.682,-3.6838,-3.6809,-3.6862,-3.6799,-3.6871,-3.682,-3.6838,-3.6838,-3.6842,-3.6846,-3.6777,-3.6885,-3.7063,-3.7081,-3.6849,-3.6847,-3.6845,0,-3.6405,-3.65,-3.6477,-3.6571,-3.6612,-3.6564,-3.6612,-3.6624,-3.6618,-3.6652,-3.6645,-3.6683,-3.6633,-3.6642,-3.668,-3.6675,-3.6741,-3.6665,-3.6713,-3.6715,-3.6712,-3.6876,-3.6908,-3.7026,-3.6819,-3.6822,-3.6824,0,-3.6277,-3.6287,-3.6306,-3.6317,-3.6329,-3.6364,-3.6419,-3.6451,-3.6475,-3.6493,-3.6538,-3.6592,-3.6556,-3.6572,-3.6552,-3.6592,-3.6695,-3.6548,-3.6548,-3.6576,-3.6804,-3.6834,-3.6854,-3.6672,-3.6675,-3.6678,-3.6803,0,-3.6095,-3.6141,-3.619,-3.6217,-3.624,-3.6299,-3.628,-3.6307,-3.6284,-3.6277,-3.6343,-3.6349,-3.6382,-3.6399,-3.6378,-3.6478,-3.6458,-3.6419,-3.6358,-3.6465,-3.6506,-3.6523,-3.6298,-3.6296,-3.6295,-3.6294,0,0,-3.5944,-3.601,-3.5983,-3.6036,-3.6054,-3.6004,-3.6068,-3.608,-3.6105,-3.6119,-3.6084,-3.6161,-3.6168,-3.625,-3.6282,-3.6295,-3.6311,-3.6274,-3.6414,-3.6428,-3.644,-3.6484,-3.6502,-3.6291,-3.629,-3.6289,-3.6289,0,-3.5874,-3.5882,-3.5946,-3.5958,-3.5973,-3.5963,-3.5978,-3.5985,-3.5984,-3.6048,-3.6006,-3.6043,-3.6106,-3.6118,-3.6133,-3.6264,-3.623,-3.6275,-3.6352,-3.6399,-3.6414,-3.6428,-3.6475,-3.6492,-3.6285,-3.6285,-3.6285,0,-3.5745,-3.575,-3.578,-3.582,-3.583,-3.5874,-3.5805,-3.5855,-3.5887,-3.5829,-3.5894,-3.5895,-3.591,-3.599,-3.6025,-3.5995,-3.6157,-3.6103,-3.6112,-3.6116,-3.616,-3.6179,-3.6196,-3.5974,-3.5973,-3.5972,0,0,-3.5687,-3.573,-3.5727,-3.5804,-3.5813,-3.5798,-3.582,-3.5801,-3.5816,-3.5822,-3.5823,-3.5838,-3.5874,-3.5899,-3.5931,-3.6022,-3.6023,-3.6065,-3.608,-3.6092,-3.6102,-3.6149,-3.6168,-3.5968,-3.5968,-3.5968,0,0,-3.5659,-3.566,-3.5635,-3.5721,-3.5737,-3.574,-3.5787,-3.5756,-3.5784,-3.5776,-3.5745,-3.5748,-3.5822,-3.5825,-3.5776,-3.5909,-3.5849,-3.586,-3.5905,-3.5923,-3.5938,-3.5936,-3.5706,0,0,0,0,0,-3.5578,-3.5659,-3.5637,-3.5649,-3.57,-3.5752,-3.5758,-3.5735,-3.5692,-3.573,-3.5725,-3.5688,-3.5792,-3.5749,-3.576,-3.5815,-3.592,-3.5928,-3.5937,-3.6016,-3.6035,-3.6052,0,0,0,0,0,0,-3.5582,-3.5597,-3.5635,-3.5641,-3.5653,-3.5749,-3.5672,-3.5667,-3.5688,-3.568,-3.569,-3.5688,-3.5669,-3.5741,-3.5752,-3.5804,-3.5703,-3.5923,-3.593,-3.5937,-3.6023,-3.6039,-3.6052,0,0,0,0,0,-3.5586,-3.5597,-3.5686,-3.564,-3.565,-3.5639,-3.5668,-3.5664,-3.568,-3.5673,-3.567,-3.566,-3.5671,-3.5679,-3.5747,-3.58,-3.5695,-3.5699,-3.5928,-3.5934,-3.5939,-3.603,0,0,0,0,0,0,-3.5588,-3.5594,-3.5687,-3.5689,-3.5608,-3.5633,-3.5636,-3.5662,-3.5671,-3.5669,-3.5642,-3.5636,-3.5674,-3.5679,-3.5685,-3.58,-3.5689,-3.5693,-3.5695,-3.5932,-3.5937,-3.5941,0,0,0,0,0,0,-3.5587,-3.5596,-3.5688,-3.5649,-3.5646,-3.5627,-3.563,-3.5685,-3.5672,-3.5639,-3.5634,-3.5639,-3.5664,-3.568,-3.5684,-3.5771,-3.5684,-3.5688,-3.5691,-3.5692,-3.5936,-3.594,0,0,0,0,0,0,-3.559,-3.5598,-3.5648,-3.5646,-3.5644,-3.5665,-3.5675,-3.5729,-3.5639,-3.5639,-3.563,-3.5626,-3.5666,-3.567,-3.5684,-3.5769,-3.577,-3.5684,-3.5687,-3.5689,-3.569,0,0,0,0,0,0,0,-3.5593,-3.5549,-3.5675,-3.5644,-3.5642,-3.5708,-3.5709,-3.5709,-3.5638,-3.5635,-3.5631,-3.5628,-3.5661,-3.5665,-3.567,-3.5767,0,0,-3.5684,-3.5685,0,0,0,0,0,0,0,0,-3.5546,-3.5549,-3.5675,-3.5675,-3.5676,-3.5708,-3.5709,-3.5709,-3.5638,-3.5635,-3.5632,-3.5629,-3.5662,-3.5665,-3.5669,0,0,0,0,0,0,0,0,0,0,0,0,0,0,0,-3.5675,-3.5675,0,-3.5708,-3.5709,-3.5709,-3.5637,-3.5635,-3.5632,-3.563,-3.5663,-3.5666,-3.5669,0,0,0,0,0,0,0,0,0,0,0,0,0,0,0,0,0,0,0,0,0,0,0,0,0,0,0,0,0,0,0,0,0,0,0,0,0,0,0,0,0,0,0,0,0,0,0,0,0,0,0,0,0,0,0,0,0,0,0,0,0,0,0,0,0,0,0,0,0]}]]]